Location: *
(50.9167°S, 179.4000°W)
Time: 19:53:04
(UTC+00:00)

METEOR-M - Pass Details

Date: 03 March 2024
Orbit: 814 x 819 km, 98.6° (Epoch: 16 April)

Event Time Altitude Azimuth Distance (km) Brightness Sun altitude
Exits shadow 14:56:03 45° 280° (W) 1,117 4.4 -22.4°
Maximum altitude 14:56:06 45° 278° (W) 1,117 4.4 -22.4°
Drops below altitude 10° 15:01:17 10° 206° (SSW) 2,445 6.8 -21.8°
Sets 15:03:46 0° 199° (SSW) 3,385 7.7 -21.5°
